Location: Unspecified
(0.0000°N, 1.0000°E)
Time: 13:18:13
(UTC+02:00)

Daily predictions for brighter satellites

Satellite Brightness Start Highest point End
(mag) Time Altitude Azimuth Time Altitude Azimuth Time Altitude Azimuth
Iridium 4 Rocket 4.2 19:59:36 10° SSE 20:03:57 32° E 20:08:37 10° NNE
YAOGAN 1 2.7 20:00:06 10° SSE 20:04:20 53° ENE 20:08:32 10° N
CZ-4C R/B 3.3 20:00:42 10° SW 20:05:18 41° WNW 20:09:58 10° N
Cosmos 1727 Rocket 4.4 19:59:57 10° NNE 20:05:49 40° E 20:11:37 10° SSE
GPS 2-15 Rocket1 4.3 20:03:24 10° W 20:07:43 35° NNW 20:11:59 10° NE
Cosmos 1408 Rocket 3.9 20:03:27 10° N 20:07:53 75° W 20:12:21 10° S
Cosmos 1048 Rocket 4.3 20:04:28 10° SSW 20:09:40 73° WNW 20:14:47 10° N
GPS 2-17 Rocket1 3.5 20:06:30 10° W 20:11:10 58° NNW 20:15:40 10° ENE
Cosmos 2297 Rocket 3.4 20:08:47 10° SSE 20:13:01 22° ESE 20:17:15 10° ENE
Cosmos 2360 Rocket 3.9 20:12:17 10° ENE 20:13:58 11° ENE 20:15:40 10° E
Cosmos 1980 Rocket 3.6 20:09:48 10° NW 20:15:10 44° WSW 20:20:34 10° S
Cosmos 1300 3.8 20:14:28 10° SSE 20:17:38 24° E 20:20:47 10° NE
FENGYUN 3A 4.4 20:16:10 10° SE 20:20:43 28° ENE 20:25:15 10° NNE
Cosmos 2322 Rocket 2.4 20:15:45 10° N 20:21:07 48° ENE 20:26:32 10° SSE
deb Centaur AC-2 4.2 20:23:51 10° WSW 20:28:20 88° SSE 20:32:32 16° ENE
Cosmos 1624 Rocket 4.0 20:23:52 10° N 20:29:04 67° ENE 20:34:19 10° SSE
Delta 202 4.1 20:26:23 10° WNW 20:31:58 66° NNE 20:38:07 16° E
Cosmos 1371 Rocket 4.1 20:26:39 10° NNW 20:31:59 87° W 20:37:17 10° SSE
Cosmos 1626 2.2 20:28:38 10° N 20:32:21 83° W 20:36:05 10° S
Thor Agena Rocket 4.3 20:33:17 10° N 20:38:11 54° WNW 20:43:06 10° SSW
ARIANE 3 DEB 1.3 20:37:45 10° W 20:39:56 79° S 20:40:30 44° ESE
ALOS 2.4 20:35:56 10° SSE 20:40:28 52° ENE 20:44:59 10° N
Cosmos 2151 3.0 20:39:57 10° N 20:44:10 82° W 20:48:23 10° S
Cosmos 1535 Rocket 4.5 20:38:19 10° S 20:44:35 89° W 20:50:44 10° N
Cosmos 2221 4.4 20:41:00 10° SSW 20:44:50 32° W 20:48:41 10° NNW
Cosmos 1315 Rocket 3.1 20:41:44 10° NNE 20:45:40 45° E 20:49:39 10° SSE
ARIANE 5 DEB (SYLDA) 1.3 20:42:42 10° W 20:45:46 67° S 20:45:52 64° SSE
GPS 2-14 Rocket1 4.3 20:45:07 10° NNW 20:47:50 18° NNE 20:47:59 18° NNE
SPOT 3 Rocket 3.7 20:46:13 10° S 20:51:22 78° WSW 20:56:32 10° NNW
Palapa B4 Rocket 4.2 20:49:18 10° W 20:54:14 59° NNW 20:58:29 25° NE
Meteor 2-10 4.0 20:53:08 10° S 20:58:14 76° W 21:03:14 10° N
ARIANE 5 DEB (SYLDA) 4.4 21:03:57 10° WNW 21:04:13 13° WNW 21:04:13 13° WNW
SL-23 DEB 3.7 21:04:38 10° SSW 21:07:12 55° S 21:07:12 55° S
ARIANE 5 R/B 4.2 12:33:20 10° W 21:09:50 70° S 21:12:35 35° ESE
OAO 3 Rocket 4.4 21:09:07 10° WNW 21:13:44 39° SW 21:16:44 19° SSE
GPS 2-12 Rocket1 3.5 21:11:25 10° W 21:15:44 52° SSW 21:16:29 46° SSE
SL-16 R/B 3.5 21:10:42 10° NW 21:15:56 40° WSW 21:21:12 10° S
Cosmos 2228 Rocket 3.2 21:11:56 10° S 21:15:45 60° SE 21:15:45 60° SE
Meteor 2-2 Rocket 4.5 21:12:02 10° S 21:17:53 71° W 21:23:36 10° N
Milstar 3 Cent rocket 3.6 21:13:09 10° NNW 21:18:09 24° NNE 21:18:09 24° NNE
Cosmos 2227 Rocket 2.9 21:13:18 10° SSW 21:18:47 53° WNW 21:24:15 10° N
Cosmos 1452 Rocket 3.6 21:29:24 10° NNW 21:34:37 75° WSW 21:39:52 10° S
ARIANE 5 R/B 4.4 15:40:16 10° W 21:56:01 73° S 22:00:32 50° ESE
Cosmos 2297 Rocket 4.1 21:52:11 10° SW 21:56:46 26° WNW 22:00:01 16° NNW
Cosmos 2360 Rocket 3.0 21:52:18 10° NNW 21:57:42 47° WSW 21:58:54 41° SW
Ariane H10+ 3.4 12:45:41 10° W 21:59:12 71° NNW 21:59:53 68° NNE
ATLAS 3B CENTAUR R/B 4.0 21:56:17 10° NW 22:04:39 72° NE 22:07:24 62° E
Ariane H10 4.5 22:03:03 10° W 22:40:54 72° SW 22:40:54 72° SW
